STARLINK-1358 (45566 NORAD) Tracking and Keplerian Element Data

This shows tracking and keplerian element data for the satellite.

Feedback or suggestion? Click here.




ElementValue
Catalog45566
NameSTARLINK-1358
Epoch Orbit541
Epoch Day143.75001157
Epoch Year2020
RAAN251.5354
Inclination52.9995
Eccentricity0.0001271
Argument of Perigee60.9299
Mean Anonmoly219.7095
Mean Motion15.62710138
Decay Rate0.00059556
L11 45566U 20025AM 20143.75001157 .00059556 00000-0 65256-3 0 9998
L22 45566 52.9995 251.5354 0001271 60.9299 219.7095 15.62710138 5415

Live tracking and technical data element details for STARLINK-1358 (NORAD 45566). STARLINK-1358 can be tracked NOW for your location showing map with azimuth and elevation plus other details from your city location.

Track the satellite on the map from your city or location and see movement details for azimuth, elevation, latitude, longitude, range, height, and movement on the map or in text.







IsCatalogInMostPopularTable: catalog: 45566, numindb: 7
Update: records affected: 1



GetName: 45566 STARLINK-1358

Hit Count: updated at: Mon, 25 May 2020 07:00:05 GMT